Regional Weather Roundup
Issued by NWS Charleston, SC

Current Version | Previous Version | Graphics & Text | Print | Product List | Glossary On
Versions: 1 2 3 4 5 6 7 8 9 10 11 12 13 14 15 16 17 18 19 20 21 22 23 24 25 26 27 28 29 30 31 32 33 34 35 36 37 38 39 40 41 42 43 44 45 46 47 48 49 50
000
ASUS42 KCHS 272127
RWRCHS

REGIONAL WEATHER ROUNDUP
NATIONAL WEATHER SERVICE CHARLESTON SC
500 PM EDT WED MAY 27 2015

NOTE: "FAIR" INDICATES FEW OR NO CLOUDS BELOW 12,000 FEET WITH NO
SIGNIFICANT WEATHER AND/OR OBSTRUCTIONS TO VISIBILITY.

NOT ALL STATIONS ARE QUALITY CONTROLLED BY THE NATIONAL
WEATHER SERVICE. USE DATA WITH CAUTION...ESPECIALLY
DEWPOINT OBSERVATIONS.

SCZ027-030-031-034>040-042>050-272200-
...SOUTHEAST SOUTH CAROLINA...

CITY           SKY/WX    TMP DP  RH WIND       PRES   REMARKS
N CHARLESTON   MOSUNNY   84  65  52 S10       30.20F
WATERFRONT PAR   N/A     79  68  69 SE9       30.17F
MOUNT PLEASANT LGT RAIN  82  70  65 SE9       30.21R
JOHNS ISLAND   CLEAR     82  68  61 S8        30.21S
PINOPOLIS        N/A     88  66  48 S6        30.10F HX  90
MONCKS CORNER  FAIR      86  64  48 S7        30.19S
SUMMERVILLE    FAIR      86  68  54 S9        30.20S
BEAUFORT MCAS  MOSUNNY   86  67  52 S5        30.19F
BEAUFORT ARPT  FAIR      82  68  61 SE6       30.19F
HILTON HEAD IS MOSUNNY   81  66  61 SE5       30.21F
WALTERBORO     PTCLDY    81  63  54 SE12      30.18F
ALLENDALE      FAIR      79  72  78 E5        30.17F

...SOUTHERN MIDLANDS AND PEE DEE...

CITY           SKY/WX    TMP DP  RH WIND       PRES   REMARKS
GEORGETOWN     NOT AVBL
KINGSTREE      NOT AVBL
ORANGEBURG     PTSUNNY   82  67  60 SW5       30.18F
BARNWELL       FAIR      82  70  65 SE10      30.18F
AIKEN          FAIR      86  61  42 S6        30.21F
MANNING        FAIR      79  66  65 S5        30.19R
COLUMBIA       PTSUNNY   82  70  66 E14       30.16F
SUMTER         PTSUNNY   75  72  88 SE3       30.18
FLORENCE       PTSUNNY   81  71  71 VRB5      30.20S
MYRTLE BEACH   SUNNY     82  66  57 S15       30.23S
N MYRTLE BEACH SUNNY     79  67  66 S14       30.22S

$$

GAZ063-065-086>088-099>101-113>116-118-119-134>141-150-272200-
...SOUTHEAST GEORGIA...

CITY           SKY/WX    TMP DP  RH WIND       PRES   REMARKS
SAVANNAH ARPT  PTSUNNY   84  64  50 SE15      30.19F
HUNTER AAF     SUNNY     82  68  62 SE9G16    30.17F
FORT STEWART   MOSUNNY   86  65  50 SE12      30.16F
STATESBORO     MOSUNNY   86  71  61 SE7       30.16S HX  91
SYLVANIA       PTCLDY    86  75  69 CALM      30.17F HX  94
CLAXTON        FAIR      86  66  51 SE9       30.16S

...CSRA...CENTRAL AND FAR SOUTHEAST GEORGIA...

CITY           SKY/WX    TMP DP  RH WIND       PRES   REMARKS
THOMSON        MOSUNNY   88  69  54 CALM      30.21S HX  92
AUGUSTA-BUSH   PTSUNNY   87  68  52 E7        30.15F HX  90
AUGUSTA-DANIEL MOSUNNY   87  65  47 S6        30.17F
SWAINSBORO     MOCLDY    86  70  58 CALM      30.17S HX  90
VIDALIA        HVY RAIN  75  72  88 NE12      30.17S
EASTMAN        FAIR      89  69  52 CALM      30.18S HX  93
HAZLEHURST     FAIR      87  69  55 S5        30.15S HX  91
ALMA           PTSUNNY   84  65  52 SE7       30.15F
WAYCROSS       MOSUNNY   88  66  48 SE12      30.15S HX  90
JESUP          FAIR      88  66  48 SE9G17    30.17R HX  90
BAXLEY         FAIR      86  66  51 SE9       30.15R
BRUNSWICK        N/A     82  61  47 E10       30.19F
SAINT SIMONS   NOT AVBL

$$

SCZ027-028-034-036>038-045-046-048>050-GAZ119-141-272200-
...LAKE AND SUPPLEMENTAL COASTAL OBSERVATIONS...

STATION/POSITION TIME  TEMP    WIND        PRES    WAVE   SWELL
                       AIR SEA DIR/SP/G            HT/PER HT/PER/DIR
                 (UTC) (F)     (DEG/KT/KT) (MB)    (FT/S) (FT/S/D)
UPR LAKE MARION  NOT AVBL
WINYAH BAY       2000   78     160/ 10     1022.0
LAKE MURRAY      2000   83     250/  5/ 10 1021.3F
ACE BASIN NERRS  NOT AVBL
FORT PULASKI     2100   80 79  150/  7/ 11 1023.0F
SAPELO ISLAND    2100   85     120/  8     1022.0F

$$

ANZ835-935-AMZ111-154-330-350-352-354-370-450-454-472-272200-
...C-MAN AND BUOY OBSERVATIONS...

STATION/POSITION TIME  TEMP    WIND        PRES    WAVE   SWELL
                       AIR SEA DIR/SP/G            HT/PER HT/PER/DIR
                 (UTC) (F)     (DEG/KT/KT) (MB)    (FT/S) (FT/S/D)
BUOY 41004       2050   78 78  130/  8/ 10 1022.7F   3/ 7   3/ 7
BUOY 41008       2050   78 79  140/  6/  8 1022.7F   3/ 7   3/110/ 7
FOLLY BEACH CMAN 2100   78     140/ 10/ 11 1023.1F
CAPERS NEARSHORE 2008   78     150/ 12/ 14 1023.3F
FRIPP NEARSHORE  2000   80     150/  6/  8 1022.8F


STATION/POSITION TIME  TEMP    WIND        PRES    WAVE   SWELL
                       AIR SEA DIR/SP/G            HT/PER HT/PER/DIR
                 (UTC) (F)     (DEG/KT/KT) (MB)    (FT/S) (FT/S/D)
5E ST. MARYS GA  2021      80                N/A     3/ 7
FRYING PAN BUOY  2050   77 76  140/ 14/ 16 1024.1F   3/ 7   2/120/ 7
BUOY 41025       2050   75 77  160/ 16/ 17 1024.6F   3/ 7   2/110/ 7
CAPE LOOKOUT NC  2100   74     150/ 14/ 16 1023.8F
BUOY 41002       2050   74 75   90/ 10/ 12 1024.5F   4/ 8   3/120/ 8
BUOY 41010       2020   78 80   80/ 14/ 16 1022.2F
ST AUGUSTINE FL  2100   78 81   80/  9/ 10 1022.5F


$$



USA.gov is the U.S. government's official web portal to all federal, state and local government web resources and services.